When you browse on this site, cookies collect data to enhance your experience and personalize the content and advertising you see.
Visit our Privacy Policy to learn more. By continuing to use the site, you agree to this use of cookies and data.
  • In Romania
  • List of Countries
  • For 7 days
  • Water Temperature
  • Weather Map
  • Weather Widgets
  • user-avatar
    Login

    Hourly Weather Salzburg

    Today, 26 February, Wednesday

    Time Temperature Precipitation Wind Pressure Humidity
    00:00 0°C° 1.7 mm 1 mps 613 mmHg 97%
    01:00 -1°C° 0 mm 1 mps 613 mmHg 97%
    02:00 -1°C° 1.9 mm 1 mps 612 mmHg 97%
    03:00 -2°C° 1.9 mm 1 mps 611 mmHg 96%
    04:00 -2°C° 1.9 mm 1 mps 611 mmHg 96%
    05:00 -3°C° 1.2 mm 1 mps 611 mmHg 95%
    06:00 -5°C° 1.2 mm 2 mps 611 mmHg 95%
    07:00 -5°C° 0 mm 2 mps 611 mmHg 94%
    08:00 -5°C° 0.7 mm 2 mps 611 mmHg 88%
    09:00 -5°C° 0.7 mm 2 mps 611 mmHg 81%
    10:00 -5°C° 0.7 mm 2 mps 611 mmHg 75%
    11:00 -5°C° 0.2 mm 2 mps 611 mmHg 76%
    12:00 -5°C° 0.2 mm 2 mps 611 mmHg 76%
    13:00 -4°C° 0.2 mm 2 mps 611 mmHg 77%
    14:00 -5°C° 0.9 mm 2 mps 611 mmHg 82%
    15:00 -7°C° 0.9 mm 3 mps 611 mmHg 87%
    16:00 -7°C° 0.9 mm 3 mps 611 mmHg 92%
    17:00 -8°C° 1 mm 3 mps 612 mmHg 93%
    18:00 -8°C° 1 mm 2 mps 612 mmHg 93%
    19:00 -8°C° 1 mm 2 mps 613 mmHg 94%
    20:00 -9°C° 0.4 mm 2 mps 613 mmHg 95%
    21:00 -9°C° 0.4 mm 2 mps 613 mmHg 95%
    22:00 -8°C° 0.4 mm 1 mps 614 mmHg 96%
    23:00 -9°C° 1 mm 2 mps 614 mmHg 96%

    Tomorrow, 27 February, Thursday

    Time Temperature Precipitation Wind Pressure Humidity
    00:00 -9°C° 1 mm 2 mps 615 mmHg 96%
    01:00 -9°C° 1 mm 2 mps 615 mmHg 96%
    02:00 -9°C° 0.4 mm 2 mps 615 mmHg 96%
    03:00 -9°C° 0.4 mm 2 mps 615 mmHg 96%
    04:00 -9°C° 0.4 mm 1 mps 615 mmHg 96%
    05:00 -9°C° 0.2 mm 1 mps 616 mmHg 96%
    06:00 -9°C° 0.2 mm 1 mps 616 mmHg 96%
    07:00 -9°C° 0.2 mm 1 mps 617 mmHg 95%
    08:00 -8°C° 0.1 mm 1 mps 617 mmHg 91%
    09:00 -7°C° 0.1 mm 1 mps 617 mmHg 88%
    10:00 -6°C° 0.1 mm 1 mps 618 mmHg 84%
    11:00 -4°C° 0 mm 1 mps 617 mmHg 78%
    12:00 -3°C° 0 mm 1 mps 617 mmHg 73%
    13:00 -2°C° 0 mm 1 mps 617 mmHg 68%
    14:00 -4°C° 0 mm 2 mps 616 mmHg 69%
    15:00 -4°C° 0 mm 2 mps 615 mmHg 71%
    16:00 -5°C° 0 mm 3 mps 614 mmHg 72%
    17:00 -6°C° 0.3 mm 3 mps 613 mmHg 78%
    18:00 -7°C° 0.3 mm 3 mps 613 mmHg 83%
    19:00 -8°C° 0.3 mm 3 mps 612 mmHg 88%
    20:00 -9°C° 0.1 mm 4 mps 612 mmHg 86%
    21:00 -9°C° 0.1 mm 4 mps 611 mmHg 84%
    22:00 -9°C° 0.1 mm 4 mps 610 mmHg 81%
    23:00 -10°C° 0.1 mm 4 mps 611 mmHg 84%

    Day after tomorrow, 28 February, Friday

    Time Temperature Precipitation Wind Pressure Humidity
    00:00 -10°C° 0.1 mm 4 mps 612 mmHg 87%
    01:00 -9°C° 0.1 mm 3 mps 612 mmHg 90%
    02:00 -10°C° 0.8 mm 4 mps 613 mmHg 92%
    03:00 -10°C° 0.8 mm 4 mps 614 mmHg 93%
    04:00 -10°C° 0.8 mm 4 mps 615 mmHg 95%
    05:00 -10°C° 1 mm 4 mps 616 mmHg 95%
    06:00 -10°C° 1 mm 4 mps 617 mmHg 94%
    07:00 -11°C° 1 mm 4 mps 618 mmHg 94%
    08:00 -10°C° 0.6 mm 4 mps 619 mmHg 93%
    09:00 -10°C° 0.6 mm 4 mps 620 mmHg 91%
    10:00 -10°C° 0.6 mm 4 mps 621 mmHg 90%
    11:00 -8°C° 0.4 mm 3 mps 621 mmHg 85%
    12:00 -7°C° 0.4 mm 3 mps 622 mmHg 81%
    13:00 -6°C° 0.4 mm 3 mps 622 mmHg 77%
    14:00 -5°C° 0 mm 2 mps 622 mmHg 77%
    15:00 -5°C° 0 mm 2 mps 622 mmHg 77%
    16:00 -3°C° 0 mm 1 mps 622 mmHg 77%
    17:00 -4°C° 0 mm 1 mps 622 mmHg 78%
    18:00 -7°C° 0 mm 1 mps 621 mmHg 79%
    19:00 -9°C° 0 mm 2 mps 621 mmHg 80%
    20:00 -9°C° 0 mm 2 mps 621 mmHg 78%
    21:00 -9°C° 0 mm 2 mps 621 mmHg 77%
    22:00 -8°C° 0 mm 2 mps 621 mmHg 76%
    23:00 -8°C° 0 mm 2 mps 621 mmHg 76%

    29 February, Saturday

    Time Temperature Precipitation Wind Pressure Humidity
    00:00 -8°C° 0 mm 2 mps 621 mmHg 77%
    01:00 -7°C° 0 mm 2 mps 621 mmHg 77%
    02:00 -7°C° 0.2 mm 2 mps 621 mmHg 79%
    03:00 -7°C° 0.2 mm 2 mps 621 mmHg 82%
    04:00 -6°C° 0.2 mm 2 mps 620 mmHg 85%
    05:00 -6°C° 0.1 mm 2 mps 620 mmHg 84%
    06:00 -6°C° 0.1 mm 2 mps 620 mmHg 83%
    07:00 -7°C° 0.1 mm 3 mps 620 mmHg 82%
    08:00 -5°C° 0 mm 3 mps 620 mmHg 83%
    09:00 -4°C° 0 mm 3 mps 620 mmHg 84%
    10:00 -2°C° 0 mm 3 mps 620 mmHg 85%
    11:00 -1°C° 0 mm 3 mps 619 mmHg 86%
    12:00 -1°C° 0 mm 3 mps 618 mmHg 88%
    13:00 0°C° 0 mm 3 mps 618 mmHg 89%
    14:00 -1°C° 0 mm 3 mps 617 mmHg 87%
    15:00 -2°C° 0 mm 4 mps 616 mmHg 85%
    16:00 -3°C° 0 mm 4 mps 616 mmHg 82%
    17:00 -4°C° 0 mm 3 mps 615 mmHg 83%
    18:00 -5°C° 0 mm 3 mps 615 mmHg 83%
    19:00 -6°C° 0 mm 3 mps 615 mmHg 83%
    20:00 -7°C° 0 mm 3 mps 615 mmHg 83%
    21:00 -7°C° 0 mm 3 mps 614 mmHg 83%
    22:00 -8°C° 0 mm 3 mps 614 mmHg 83%
    23:00 -8°C° 0 mm 3 mps 614 mmHg 84%

    1 March, Sunday

    Time Temperature Precipitation Wind Pressure Humidity
    00:00 -7°C° 0 mm 2 mps 615 mmHg 84%
    01:00 -7°C° 0 mm 2 mps 615 mmHg 84%
    02:00 -6°C° 0 mm 1 mps 615 mmHg 85%
    03:00 -6°C° 0 mm 1 mps 615 mmHg 85%
    04:00 -6°C° 0 mm 1 mps 615 mmHg 85%
    05:00 -6°C° 0.2 mm 1 mps 615 mmHg 88%
    06:00 -6°C° 0.2 mm 0 mps 615 mmHg 91%
    07:00 -6°C° 0.2 mm 0 mps 615 mmHg 94%
    08:00 -4°C° 0.7 mm 1 mps 615 mmHg 95%
    09:00 -3°C° 0.7 mm 1 mps 616 mmHg 96%
    10:00 -2°C° 0.7 mm 1 mps 616 mmHg 98%
    11:00 -2°C° 0.8 mm 1 mps 616 mmHg 98%
    12:00 -1°C° 0.8 mm 1 mps 616 mmHg 98%
    13:00 -1°C° 0.8 mm 1 mps 615 mmHg 98%
    14:00 -1°C° 0.8 mm 1 mps 615 mmHg 97%
    15:00 -3°C° 0.8 mm 2 mps 615 mmHg 96%
    16:00 -4°C° 0.8 mm 2 mps 615 mmHg 94%
    17:00 -2°C° 0.3 mm 1 mps 615 mmHg 94%
    18:00 -3°C° 0.3 mm 1 mps 615 mmHg 94%
    19:00 -4°C° 0.3 mm 1 mps 616 mmHg 93%
    20:00 -6°C° 0 mm 1 mps 615 mmHg 92%
    21:00 -7°C° 0 mm 1 mps 615 mmHg 91%
    22:00 -7°C° 0 mm 1 mps 615 mmHg 89%
    23:00 -7°C° 0 mm 1 mps 615 mmHg 89%

    2 March, Monday

    Time Temperature Precipitation Wind Pressure Humidity
    00:00 -7°C° 0 mm 1 mps 615 mmHg 88%
    01:00 -7°C° 0 mm 1 mps 615 mmHg 88%
    02:00 -7°C° 0 mm 1 mps 615 mmHg 87%
    03:00 -7°C° 0 mm 1 mps 615 mmHg 86%
    04:00 -7°C° 0 mm 1 mps 615 mmHg 85%
    05:00 -7°C° 0 mm 1 mps 615 mmHg 85%
    06:00 -7°C° 0 mm 1 mps 615 mmHg 85%
    07:00 -7°C° 0 mm 1 mps 615 mmHg 85%
    08:00 -6°C° 0 mm 1 mps 616 mmHg 85%
    09:00 -3°C° 0 mm 1 mps 617 mmHg 84%
    10:00 -2°C° 0 mm 0 mps 617 mmHg 84%
    11:00 0°C° 0 mm 1 mps 617 mmHg 86%
    12:00 +1°C° 0 mm 1 mps 617 mmHg 88%
    13:00 +1°C° 0 mm 1 mps 617 mmHg 90%
    14:00 -1°C° 0 mm 2 mps 616 mmHg 90%
    15:00 -1°C° 0 mm 2 mps 616 mmHg 91%
    16:00 -1°C° 0 mm 2 mps 615 mmHg 92%
    17:00 -2°C° 0 mm 2 mps 615 mmHg 90%
    18:00 -3°C° 0 mm 2 mps 614 mmHg 89%
    19:00 -5°C° 0 mm 3 mps 613 mmHg 87%
    20:00 -5°C° 0 mm 3 mps 613 mmHg 87%
    21:00 -5°C° 0 mm 3 mps 613 mmHg 87%
    22:00 -5°C° 0 mm 3 mps 613 mmHg 86%
    23:00 -5°C° 0 mm 3 mps 613 mmHg 87%
    Show more